South Haven, MI

8:44 AM EDT on October 22, 2017 (GMT -0400)
South Haven

Weather History for KLWA - March, 2014

Change the Weather History Date:

Monday, March 10, 2014

  Actual Average (KBEH) Record (KBEH)
Temperature  
Mean Temperature 44 °F -  
Max Temperature 50 °F 45 °F 66 °F (1955)
Min Temperature 38 °F 26 °F 9 °F (1979)
Degree Days  
Heating Degree Days 21    
Moisture  
Dew Point 33 °F    
Average Humidity 65    
Maximum Humidity 79    
Minimum Humidity 51    
Precipitation  
Precipitation 0.00 in - - ()
Sea Level Pressure  
Sea Level Pressure 29.68 in    
Wind  
Wind Speed 15 mph (SW)    
Max Wind Speed 22 mph    
Max Gust Speed 33 mph    
Visibility 9 miles    
Events      
Averages and records for this station are not official NWS values.
T = Trace of Precipitation, MM = Missing Value Source: NWS Daily Summary

Daily Weather History Graph

Daily Weather History Graph

Search for Another Location

Airport or City:

Trip Planner

Search our weather history database for the weather conditions in past years. The results will help you decide how hot, cold, wet, or windy it might be!

Date:

Astronomy

Mar. 10, 2014 Rise Set
Actual Time 8:05 AM EDT 7:45 PM EDT
Civil Twilight 7:37 AM EDT 8:13 PM EDT
Nautical Twilight 7:05 AM EDT 8:46 PM EDT
Astronomical Twilight 6:32 AM EDT 9:19 PM EDT
Moon 2:24 PM EDT (3/10) 4:21 AM EDT (3/10)
Length of Visible Light 12h 36m
Length of Day
11h 40m
Waxing Gibbous, 70% of the Moon is Illuminated
Mar 10
Waxing Gibbous
Mar 16
Full
Mar 23
Last Quarter
Mar 30
New
Apr 7
First Quarter

Hourly Weather History & Observations

Time (EDT) Temp. Windchill Dew Point Humidity Pressure Visibility Wind Dir Wind Speed Gust Speed Precip Events Conditions
12:15 AM 40.5 °F 31.5 °F 31.6 °F 71% 29.80 in 7.0 mi SW 18.4 mph 29.9 mph N/A   Overcast
12:35 AM 40.8 °F 32.6 °F 31.5 °F 69% 29.79 in 7.0 mi SW 16.1 mph 29.9 mph N/A   Overcast
12:55 AM 41.0 °F 32.8 °F 31.3 °F 68% 29.79 in 7.0 mi SW 16.1 mph 28.8 mph N/A   Overcast
1:15 AM 41.4 °F 32.7 °F 31.1 °F 67% 29.78 in 7.0 mi SW 18.4 mph 29.9 mph N/A   Overcast
1:35 AM 41.2 °F 32.1 °F 31.1 °F 67% 29.77 in 7.0 mi SW 19.6 mph 33.4 mph N/A   Mostly Cloudy
1:55 AM 41.0 °F 32.2 °F 30.9 °F 67% 29.76 in 7.0 mi SW 18.4 mph 29.9 mph N/A   Mostly Cloudy
2:15 AM 40.6 °F 30.9 °F 30.9 °F 68% 29.75 in 7.0 mi SW 21.9 mph 29.9 mph N/A   Mostly Cloudy
2:35 AM 41.0 °F 33.1 °F 30.9 °F 67% 29.74 in 7.0 mi SW 15.0 mph 27.6 mph N/A   Overcast
2:55 AM 41.0 °F 32.8 °F 31.1 °F 68% 29.74 in 7.0 mi SW 16.1 mph 28.8 mph N/A   Overcast
3:15 AM 40.5 °F 32.1 °F 31.3 °F 70% 29.72 in 7.0 mi SW 16.1 mph 27.6 mph N/A   Mostly Cloudy
3:35 AM 40.5 °F 32.1 °F 31.8 °F 71% 29.72 in 7.0 mi SW 16.1 mph 28.8 mph N/A   Mostly Cloudy
3:55 AM 40.5 °F 31.5 °F 32.0 °F 72% 29.71 in 7.0 mi WSW 18.4 mph 28.8 mph N/A   Overcast
4:15 AM 40.5 °F 31.8 °F 31.8 °F 71% 29.71 in 7.0 mi WSW 17.3 mph 28.8 mph N/A   Overcast
4:35 AM 40.3 °F 31.6 °F 31.8 °F 72% 29.71 in 7.0 mi WSW 17.3 mph 26.5 mph N/A   Mostly Cloudy
4:55 AM 40.1 °F 32.7 °F 31.6 °F 72% 29.71 in 7.0 mi WSW 12.7 mph 25.3 mph N/A   Scattered Clouds
5:15 AM 39.4 °F 31.8 °F 31.3 °F 73% 29.71 in 7.0 mi WSW 12.7 mph 20.7 mph N/A   Overcast
5:35 AM 39.2 °F 32.0 °F 31.5 °F 74% 29.71 in 7.0 mi WSW 11.5 mph 18.4 mph N/A   Scattered Clouds
5:55 AM 39.0 °F 31.0 °F 31.5 °F 74% 29.71 in 7.0 mi WSW 13.8 mph 18.4 mph N/A   Scattered Clouds
6:15 AM 38.8 °F 31.6 °F 31.5 °F 75% 29.71 in 7.0 mi WSW 11.5 mph 16.1 mph N/A   Mostly Cloudy
6:35 AM 39.4 °F 32.3 °F 31.6 °F 74% 29.71 in 7.0 mi SW 11.5 mph - N/A   Overcast
6:55 AM 39.2 °F 32.0 °F 31.6 °F 74% 29.70 in 7.0 mi SW 11.5 mph 17.3 mph N/A   Scattered Clouds
7:15 AM 39.6 °F 33.5 °F 32.0 °F 74% 29.71 in 7.0 mi WSW 9.2 mph 18.4 mph N/A   Clear
7:35 AM 39.7 °F 33.2 °F 31.5 °F 72% 29.70 in 7.0 mi WSW 10.4 mph 18.4 mph N/A   Scattered Clouds
7:55 AM 40.5 °F 34.1 °F 31.8 °F 71% 29.69 in 10.0 mi WSW 10.4 mph 19.6 mph N/A   Scattered Clouds
8:15 AM 41.2 °F 34.1 °F 31.8 °F 69% 29.69 in 10.0 mi SW 12.7 mph 20.7 mph N/A   Mostly Cloudy
8:35 AM 41.0 °F 35.2 °F 31.6 °F 69% 29.69 in 10.0 mi SW 9.2 mph 20.7 mph N/A   Mostly Cloudy
8:55 AM 41.0 °F 35.2 °F 31.6 °F 69% 29.70 in 10.0 mi WSW 9.2 mph 18.4 mph N/A   Mostly Cloudy
9:15 AM 41.9 °F 35.9 °F 31.8 °F 67% 29.70 in 10.0 mi WSW 10.4 mph 16.1 mph N/A   Mostly Cloudy
9:35 AM 42.1 °F 37.1 °F 31.8 °F 67% 29.70 in 10.0 mi WSW 8.1 mph 16.1 mph N/A   Scattered Clouds
9:55 AM 42.6 °F 36.8 °F 32.0 °F 66% 29.70 in 10.0 mi WSW 10.4 mph - N/A   Clear
10:15 AM 43.3 °F 36.8 °F 32.0 °F 64% 29.70 in 10.0 mi SW 12.7 mph 20.7 mph N/A   Clear
10:35 AM 44.4 °F 38.2 °F 32.0 °F 62% 29.69 in 10.0 mi WSW 12.7 mph 19.6 mph N/A   Clear
10:55 AM 45.1 °F 40.3 °F 32.0 °F 60% 29.68 in 10.0 mi SW 9.2 mph 20.7 mph N/A   Clear
11:15 AM 45.9 °F 40.0 °F 32.0 °F 58% 29.68 in 10.0 mi WSW 12.7 mph 19.6 mph N/A   Clear
11:35 AM 45.9 °F 40.4 °F 32.0 °F 58% 29.68 in 10.0 mi SW 11.5 mph 20.7 mph N/A   Clear
11:55 AM 46.0 °F 39.9 °F 32.0 °F 58% 29.68 in 10.0 mi SW 13.8 mph 21.9 mph N/A   Clear
12:15 PM 46.4 °F 40.1 °F 32.0 °F 57% 29.67 in 10.0 mi SW 15.0 mph 21.9 mph N/A   Clear
12:35 PM 46.8 °F - 32.0 °F 57% 29.67 in 10.0 mi SW 17.3 mph 24.2 mph N/A   Clear
12:55 PM 47.5 °F - 32.2 °F 55% 29.67 in 10.0 mi WSW 17.3 mph 25.3 mph N/A   Clear
1:15 PM 47.8 °F - 32.2 °F 55% 29.66 in 10.0 mi WSW 12.7 mph 25.3 mph N/A   Clear
1:35 PM 48.4 °F - 32.4 °F 54% 29.65 in 10.0 mi SW 13.8 mph 21.9 mph N/A   Clear
1:55 PM 48.9 °F - 32.4 °F 53% 29.64 in 10.0 mi SW 12.7 mph 23.0 mph N/A   Clear
2:15 PM 49.1 °F - 32.5 °F 53% 29.64 in 10.0 mi WSW 17.3 mph 26.5 mph N/A   Clear
2:35 PM 49.3 °F - 32.5 °F 53% 29.63 in 10.0 mi WSW 21.9 mph 29.9 mph N/A   Clear
2:55 PM 49.8 °F - 32.5 °F 51% 29.63 in 10.0 mi WSW 18.4 mph 26.5 mph N/A   Clear
3:15 PM 50.0 °F - 32.5 °F 51% 29.62 in 10.0 mi WSW 16.1 mph 27.6 mph N/A   Clear
3:35 PM 50.0 °F - 32.9 °F 52% 29.62 in 10.0 mi WSW 17.3 mph 27.6 mph N/A   Clear
3:55 PM 50.2 °F - 32.9 °F 52% 29.61 in 10.0 mi WSW 16.1 mph 27.6 mph N/A   Clear
4:15 PM 50.4 °F - 33.4 °F 52% 29.61 in 10.0 mi WSW 15.0 mph 23.0 mph N/A   Clear
4:35 PM 50.9 °F - 33.8 °F 52% 29.61 in 10.0 mi WSW 18.4 mph 28.8 mph N/A   Clear
4:55 PM 50.9 °F - 34.0 °F 52% 29.60 in 10.0 mi SW 18.4 mph 28.8 mph N/A   Clear
5:15 PM 50.9 °F - 34.0 °F 52% 29.60 in 10.0 mi SW 15.0 mph 26.5 mph N/A   Clear
5:35 PM 50.9 °F - 34.5 °F 54% 29.61 in 10.0 mi WSW 18.4 mph 25.3 mph N/A   Clear
5:55 PM 50.2 °F - 34.5 °F 55% 29.60 in 10.0 mi SW 19.6 mph 25.3 mph N/A   Clear
6:15 PM 50.0 °F - 34.9 °F 56% 29.60 in 10.0 mi SW 17.3 mph 25.3 mph N/A   Clear
6:35 PM 49.8 °F - 35.1 °F 57% 29.61 in 10.0 mi SW 16.1 mph 25.3 mph N/A   Clear
6:55 PM 48.7 °F - 35.1 °F 59% 29.62 in 10.0 mi WSW 17.3 mph 21.9 mph N/A   Clear
7:15 PM 47.8 °F - 35.1 °F 61% 29.63 in 10.0 mi WSW 17.3 mph 24.2 mph N/A   Clear
7:35 PM 46.6 °F - 34.7 °F 63% 29.64 in 10.0 mi WSW 12.7 mph 25.3 mph N/A   Clear
7:55 PM 46.2 °F 40.5 °F 34.2 °F 63% 29.64 in 10.0 mi WSW 12.7 mph 18.4 mph N/A   Clear
8:15 PM 45.9 °F 40.4 °F 34.3 °F 64% 29.65 in 10.0 mi WSW 11.5 mph 20.7 mph N/A   Clear
8:35 PM 44.6 °F 38.8 °F 34.2 °F 67% 29.66 in 10.0 mi WSW 11.5 mph 19.6 mph N/A   Clear
8:55 PM 43.7 °F 38.6 °F 34.0 °F 69% 29.66 in 10.0 mi WSW 9.2 mph 19.6 mph N/A   Clear
9:15 PM 43.7 °F 37.7 °F 34.0 °F 69% 29.66 in 10.0 mi WSW 11.5 mph 19.6 mph N/A   Clear
9:35 PM 42.8 °F 38.0 °F 34.2 °F 72% 29.66 in 10.0 mi WSW 8.1 mph - N/A   Clear
9:55 PM 42.4 °F 37.5 °F 34.5 °F 74% 29.66 in 10.0 mi WSW 8.1 mph - N/A   Clear
10:15 PM 43.0 °F 38.2 °F 34.9 °F 73% 29.66 in 10.0 mi SW 8.1 mph - N/A   Clear
10:35 PM 42.8 °F 37.0 °F 34.9 °F 74% 29.67 in 10.0 mi WSW 10.4 mph - N/A   Clear
10:55 PM 42.8 °F 37.5 °F 35.4 °F 75% 29.66 in 10.0 mi WSW 9.2 mph 17.3 mph N/A   Clear
11:15 PM 42.8 °F 37.0 °F 35.6 °F 76% 29.66 in 10.0 mi WSW 10.4 mph 16.1 mph N/A   Clear
11:35 PM 41.9 °F 37.5 °F 35.6 °F 78% 29.66 in 10.0 mi WSW 6.9 mph - N/A   Clear
11:55 PM 41.5 °F 36.4 °F 35.6 °F 79% 29.66 in 10.0 mi WSW 8.1 mph - N/A   Clear